| time (UTC) | temp F | wind direction | speed knots | gust knots | rain 1hr in | rain 24hr in | rain mn in | humidity % | barometer mb |
| 20260906222544 | 82 | 216 | 0.9 | 3.5 | 0.00 | 0.00 | 0.00 | 37 | 1018.6 |
| 20260906222044 | 82 | 0 | 0.9 | 2.6 | 0.00 | 0.00 | 0.00 | 37 | 1018.6 |
| 20260906221600 | 82 | 187 | 0.0 | 2.6 | 0.00 | 0.00 | 0.00 | 38 | 1018.6 |
| 20260906221044 | 82 | 0 | 0.9 | 4.3 | 0.00 | 0.00 | 0.00 | 35 | 1018.7 |
| 20260906220543 | 83 | 172 | 0.0 | 4.3 | 0.00 | 0.00 | 0.00 | 36 | 1018.8 |
| 20260906220056 | 82 | 172 | 0.0 | 2.6 | 0.00 | 0.00 | 0.00 | 36 | 1018.9 |
| 20260906215542 | 83 | 0 | 0.0 | 2.6 | 0.00 | 0.00 | 0.00 | 36 | 1018.9 |
| 20260906215043 | 83 | 0 | 0.0 | 2.6 | 0.00 | 0.00 | 0.00 | 34 | 1018.9 |
| 20260906214557 | 83 | 41 | 0.9 | 2.6 | 0.00 | 0.00 | 0.00 | 35 | 1019.0 |
| 20260906214045 | 82 | 0 | 0.0 | 3.5 | 0.00 | 0.00 | 0.00 | 35 | 1019.1 |
| 20260906213544 | 83 | 48 | 1.7 | 3.5 | 0.00 | 0.00 | 0.00 | 35 | 1019.1 |
| 20260906213058 | 83 | 57 | 1.7 | 3.5 | 0.00 | 0.00 | 0.00 | 36 | 1019.1 |
| 20260906212542 | 83 | 0 | 0.0 | 3.5 | 0.00 | 0.00 | 0.00 | 35 | 1019.3 |
| 20260906212045 | 83 | 0 | 0.0 | 4.3 | 0.00 | 0.00 | 0.00 | 34 | 1019.3 |
| 20260906211604 | 83 | 0 | 0.9 | 4.3 | 0.00 | 0.00 | 0.00 | 34 | 1019.3 |
| 20260906211043 | 83 | 134 | 0.9 | 4.3 | 0.00 | 0.00 | 0.00 | 36 | 1019.4 |
| 20260906210546 | 82 | 101 | 0.9 | 3.5 | 0.00 | 0.00 | 0.00 | 36 | 1019.4 |
| 20260906210106 | 82 | 108 | 0.9 | 2.6 | 0.00 | 0.00 | 0.00 | 35 | 1019.6 |
| 20260906205542 | 83 | 107 | 0.9 | 2.6 | 0.00 | 0.00 | 0.00 | 34 | 1019.7 |
| 20260906205042 | 82 | 107 | 0.9 | 2.6 | 0.00 | 0.00 | 0.00 | 36 | 1019.7 |
| 20260906204609 | 82 | 0 | 0.0 | 5.2 | 0.00 | 0.00 | 0.00 | 35 | 1019.7 |
| 20260906204043 | 82 | 0 | 0.9 | 5.2 | 0.00 | 0.00 | 0.00 | 34 | 1019.9 |
| 20260906203544 | 82 | 104 | 1.7 | 5.2 | 0.00 | 0.00 | 0.00 | 35 | 1019.7 |
| 20260906203057 | 83 | 121 | 1.7 | 6.1 | 0.00 | 0.00 | 0.00 | 35 | 1019.8 |
| 20260906202542 | 83 | 82 | 2.6 | 6.1 | 0.00 | 0.00 | 0.00 | 34 | 1019.9 |
| 20260906202042 | 83 | 90 | 0.9 | 4.3 | 0.00 | 0.00 | 0.00 | 33 | 1019.9 |
| 20260906201606 | 83 | 73 | 0.9 | 7.0 | 0.00 | 0.00 | 0.00 | 31 | 1020.0 |
| 20260906201043 | 83 | 0 | 0.9 | 7.8 | 0.00 | 0.00 | 0.00 | 31 | 1020.0 |
| 20260906200544 | 84 | 74 | 3.5 | 7.8 | 0.00 | 0.00 | 0.00 | 29 | 1019.9 |
| 20260906200103 | 85 | 120 | 3.5 | 7.0 | 0.00 | 0.00 | 0.00 | 28 | 1019.9 |
| 20260906195543 | 86 | 74 | 1.7 | 7.0 | 0.00 | 0.00 | 0.00 | 31 | 1020.0 |
| 20260906195045 | 86 | 15 | 2.6 | 7.0 | 0.00 | 0.00 | 0.00 | 31 | 1020.0 |
| 20260906194601 | 85 | 63 | 1.7 | 7.0 | 0.00 | 0.00 | 0.00 | 31 | 1020.0 |
| 20260906194040 | 84 | 42 | 1.7 | 7.0 | 0.00 | 0.00 | 0.00 | 31 | 1019.9 |
| 20260906193543 | 83 | 30 | 1.7 | 7.0 | 0.00 | 0.00 | 0.00 | 32 | 1020.0 |
| 20260906193055 | 84 | 57 | 1.7 | 7.0 | 0.00 | 0.00 | 0.00 | 33 | 1020.1 |
| 20260906192541 | 83 | 64 | 2.6 | 7.8 | 0.00 | 0.00 | 0.00 | 31 | 1020.2 |
| 20260906192041 | 83 | 89 | 2.6 | 7.8 | 0.00 | 0.00 | 0.00 | 34 | 1020.3 |
| 20260906191554 | 83 | 107 | 2.6 | 7.0 | 0.00 | 0.00 | 0.00 | 37 | 1020.4 |
| 20260906191041 | 83 | 71 | 4.3 | 8.7 | 0.00 | 0.00 | 0.00 | 38 | 1020.6 |
| 20260906190544 | 83 | 58 | 2.6 | 8.7 | 0.00 | 0.00 | 0.00 | 36 | 1020.7 |
| 20260906185546 | 84 | 37 | 2.6 | 7.0 | 0.00 | 0.00 | 0.00 | 40 | 1020.8 |
| 20260906185041 | 82 | 350 | 1.7 | 7.8 | 0.00 | 0.00 | 0.00 | 40 | 1020.8 |
| 20260906184600 | 83 | 65 | 4.3 | 7.8 | 0.00 | 0.00 | 0.00 | 39 | 1020.9 |
| 20260906184040 | 83 | 96 | 2.6 | 7.0 | 0.00 | 0.00 | 0.00 | 38 | 1021.0 |
| 20260906183540 | 82 | 110 | 1.7 | 6.1 | 0.00 | 0.00 | 0.00 | 39 | 1021.1 |
| 20260906183054 | 81 | 78 | 1.7 | 7.0 | 0.00 | 0.00 | 0.00 | 41 | 1021.2 |
| 20260906182542 | 81 | 57 | 3.5 | 7.8 | 0.00 | 0.00 | 0.00 | 40 | 1021.2 |
| 20260906182041 | 81 | 67 | 1.7 | 7.8 | 0.00 | 0.00 | 0.00 | 41 | 1021.2 |
| 20260906181557 | 82 | 0 | 2.6 | 7.8 | 0.00 | 0.00 | 0.00 | 41 | 1021.5 |
| 20260906181041 | 81 | 74 | 1.7 | 5.2 | 0.00 | 0.00 | 0.00 | 40 | 1021.5 |
| 20260906180541 | 82 | 340 | 0.0 | 5.2 | 0.00 | 0.00 | 0.00 | 40 | 1021.5 |
| 20260906180105 | 81 | 117 | 0.9 | 5.2 | 0.00 | 0.00 | 0.00 | 40 | 1021.6 |
| 20260906175544 | 81 | 116 | 1.7 | 6.1 | 0.00 | 0.00 | 0.00 | 39 | 1021.7 |
| 20260906175041 | 80 | 0 | 1.7 | 6.1 | 0.00 | 0.00 | 0.00 | 37 | 1021.8 |
| 20260906174607 | 80 | 77 | 0.9 | 4.3 | 0.00 | 0.00 | 0.00 | 37 | 1021.9 |
| 20260906174044 | 81 | 79 | 1.7 | 6.1 | 0.00 | 0.00 | 0.00 | 36 | 1021.9 |
| 20260906173540 | 81 | 171 | 2.6 | 7.0 | 0.00 | 0.00 | 0.00 | 38 | 1022.1 |
| 20260906173059 | 79 | 163 | 1.7 | 7.8 | 0.00 | 0.00 | 0.00 | 41 | 1022.2 |
| 20260906172543 | 79 | 117 | 2.6 | 7.8 | 0.00 | 0.00 | 0.00 | 39 | 1022.1 |
| 20260906172041 | 78 | 164 | 2.6 | 7.0 | 0.00 | 0.00 | 0.00 | 42 | 1022.2 |
| 20260906171558 | 77 | 0 | 1.7 | 5.2 | 0.00 | 0.00 | 0.00 | 44 | 1022.3 |
| 20260906171044 | 78 | 104 | 0.9 | 5.2 | 0.00 | 0.00 | 0.00 | 41 | 1022.3 |
| 20260906170544 | 78 | 96 | 1.7 | 6.1 | 0.00 | 0.00 | 0.00 | 42 | 1022.4 |
| 20260906170057 | 77 | 63 | 1.7 | 6.1 | 0.00 | 0.00 | 0.00 | 44 | 1022.3 |
| 20260906165541 | 78 | 123 | 1.7 | 7.0 | 0.00 | 0.00 | 0.00 | 41 | 1022.3 |
| 20260906165043 | 76 | 117 | 0.0 | 7.0 | 0.00 | 0.00 | 0.00 | 48 | 1022.5 |
| 20260906164554 | 76 | 144 | 1.7 | 6.1 | 0.00 | 0.00 | 0.00 | 50 | 1022.5 |
| 20260906164043 | 76 | 136 | 1.7 | 6.1 | 0.00 | 0.00 | 0.00 | 48 | 1022.5 |
| 20260906163542 | 76 | 134 | 1.7 | 5.2 | 0.00 | 0.00 | 0.00 | 47 | 1022.4 |
| 20260906163100 | 77 | 151 | 1.7 | 5.2 | 0.00 | 0.00 | 0.00 | 47 | 1022.5 |
| 20260906162543 | 76 | 88 | 1.7 | 4.3 | 0.00 | 0.00 | 0.00 | 50 | 1022.5 |
| 20260906162043 | 75 | 81 | 0.9 | 3.5 | 0.00 | 0.00 | 0.00 | 50 | 1022.5 |
| 20260906161602 | 74 | 109 | 0.0 | 3.5 | 0.00 | 0.00 | 0.00 | 52 | 1022.6 |
| 20260906161042 | 74 | 0 | 0.0 | 3.5 | 0.00 | 0.00 | 0.00 | 49 | 1022.6 |
| 20260906160542 | 75 | 111 | 0.9 | 3.5 | 0.00 | 0.00 | 0.00 | 49 | 1022.6 |
| 20260906160100 | 74 | 23 | 0.0 | 3.5 | 0.00 | 0.00 | 0.00 | 49 | 1022.5 |
| 20260906155543 | 73 | 0 | 0.9 | 3.5 | 0.00 | 0.00 | 0.00 | 49 | 1022.5 |
| 20260906155045 | 73 | 74 | 0.9 | 6.1 | 0.00 | 0.00 | 0.00 | 50 | 1022.5 |
| 20260906154603 | 73 | 0 | 1.7 | 6.1 | 0.00 | 0.00 | 0.00 | 53 | 1022.5 |
| 20260906154042 | 73 | 132 | 0.9 | 3.5 | 0.00 | 0.00 | 0.00 | 56 | 1022.6 |
| 20260906153545 | 72 | 133 | 1.7 | 3.5 | 0.00 | 0.00 | 0.00 | 59 | 1022.5 |
| 20260906153100 | 71 | 0 | 0.9 | 4.3 | 0.00 | 0.00 | 0.00 | 61 | 1022.6 |
| 20260906152542 | 71 | 113 | 0.9 | 4.3 | 0.00 | 0.00 | 0.00 | 62 | 1022.6 |
| 20260906152042 | 71 | 136 | 0.9 | 4.3 | 0.00 | 0.00 | 0.00 | 62 | 1022.6 |
| 20260906151554 | 70 | 156 | 0.9 | 4.3 | 0.00 | 0.00 | 0.00 | 64 | 1022.7 |
| 20260906151044 | 70 | 160 | 1.7 | 4.3 | 0.00 | 0.00 | 0.00 | 66 | 1022.7 |
| 20260906150539 | 69 | 161 | 0.9 | 4.3 | 0.00 | 0.00 | 0.00 | 66 | 1022.7 |
| 20260906145546 | 70 | 144 | 0.9 | 4.3 | 0.00 | 0.00 | 0.00 | 65 | 1022.8 |
| 20260906145043 | 69 | 138 | 1.7 | 4.3 | 0.00 | 0.00 | 0.00 | 66 | 1023.0 |
| 20260906144600 | 68 | 0 | 0.0 | 0.0 | 0.00 | 0.00 | 0.00 | 68 | 1022.8 |
| 20260906144042 | 67 | 0 | 0.0 | 2.6 | 0.00 | 0.00 | 0.00 | 71 | 1022.8 |
| 20260906143543 | 67 | 0 | 0.0 | 2.6 | 0.00 | 0.00 | 0.00 | 69 | 1022.8 |
| 20260906143109 | 67 | 95 | 0.0 | 2.6 | 0.00 | 0.00 | 0.00 | 69 | 1022.9 |
| 20260906142542 | 68 | 0 | 0.0 | 3.5 | 0.00 | 0.00 | 0.00 | 68 | 1022.7 |
| 20260906142040 | 68 | 93 | 0.9 | 3.5 | 0.00 | 0.00 | 0.00 | 66 | 1022.7 |
| 20260906141600 | 68 | 82 | 0.9 | 3.5 | 0.00 | 0.00 | 0.00 | 69 | 1022.7 |
| 20260906141042 | 67 | 87 | 0.9 | 3.5 | 0.00 | 0.00 | 0.00 | 69 | 1022.5 |
| 20260906140542 | 67 | 86 | 0.9 | 2.6 | 0.00 | 0.00 | 0.00 | 69 | 1022.6 |
| 20260906140058 | 66 | 286 | 0.0 | 1.7 | 0.00 | 0.00 | 0.00 | 69 | 1022.5 |
| 20260906135542 | 66 | 0 | 0.0 | 2.6 | 0.00 | 0.00 | 0.00 | 62 | 1022.5 |
| 20260906135038 | 65 | 284 | 0.9 | 2.6 | 0.00 | 0.00 | 0.00 | 64 | 1022.5 |
| 20260906134558 | 64 | 284 | 0.9 | 2.6 | 0.00 | 0.00 | 0.00 | 62 | 1022.4 |
| 20260906134043 | 64 | 0 | 0.0 | 2.6 | 0.00 | 0.00 | 0.00 | 63 | 1022.4 |
| 20260906133540 | 63 | 281 | 0.9 | 2.6 | 0.00 | 0.00 | 0.00 | 62 | 1022.5 |
| 20260906133105 | 63 | 280 | 0.0 | 3.5 | 0.00 | 0.00 | 0.00 | 63 | 1022.6 |
| 20260906132541 | 62 | 0 | 0.9 | 3.5 | 0.00 | 0.00 | 0.00 | 62 | 1022.7 |
| 20260906132040 | 62 | 280 | 1.7 | 3.5 | 0.00 | 0.00 | 0.00 | 63 | 1022.6 |
| 20260906131605 | 61 | 312 | 1.7 | 3.5 | 0.00 | 0.00 | 0.00 | 63 | 1022.6 |
| 20260906131041 | 61 | 313 | 0.9 | 3.5 | 0.00 | 0.00 | 0.00 | 67 | 1022.6 |
| 20260906130544 | 61 | 313 | 0.9 | 2.6 | 0.00 | 0.00 | 0.00 | 67 | 1022.4 |
| 20260906130059 | 61 | 313 | 0.9 | 2.6 | 0.00 | 0.00 | 0.00 | 66 | 1022.4 |
| 20260906125541 | 61 | 0 | 0.0 | 2.6 | 0.00 | 0.00 | 0.00 | 64 | 1022.5 |
| 20260906125041 | 61 | 0 | 0.9 | 5.2 | 0.00 | 0.00 | 0.00 | 62 | 1022.4 |
| 20260906124600 | 61 | 314 | 1.7 | 5.2 | 0.00 | 0.00 | 0.00 | 60 | 1022.3 |
| 20260906124041 | 61 | 287 | 1.7 | 5.2 | 0.00 | 0.00 | 0.00 | 61 | 1022.3 |
| 20260906123541 | 61 | 293 | 2.6 | 4.3 | 0.00 | 0.00 | 0.00 | 60 | 1022.3 |
| 20260906123104 | 61 | 296 | 1.7 | 4.3 | 0.00 | 0.00 | 0.00 | 60 | 1022.2 |
| 20260906122541 | 61 | 301 | 0.9 | 5.2 | 0.00 | 0.00 | 0.00 | 60 | 1022.1 |
| 20260906122041 | 61 | 280 | 1.7 | 5.2 | 0.00 | 0.00 | 0.00 | 59 | 1022.2 |
| 20260906121556 | 61 | 311 | 1.7 | 5.2 | 0.00 | 0.00 | 0.00 | 59 | 1022.3 |
| 20260906121040 | 61 | 293 | 1.7 | 5.2 | 0.00 | 0.00 | 0.00 | 59 | 1022.2 |
| 20260906120541 | 61 | 282 | 1.7 | 4.3 | 0.00 | 0.00 | 0.00 | 58 | 1022.2 |
| 20260906120140 | 61 | 329 | 0.9 | 3.5 | 0.00 | 0.00 | 0.00 | 60 | 1022.0 |
| 20260906115541 | 61 | 329 | 1.7 | 6.1 | 0.00 | 0.00 | 0.00 | 60 | 1022.1 |
| 20260906115053 | 61 | 294 | 2.6 | 6.1 | 0.00 | 0.00 | 0.00 | 60 | 1022.1 |
| 20260906114607 | 61 | 304 | 0.9 | 4.3 | 0.00 | 0.00 | 0.00 | 60 | 1022.0 |
| 20260906114040 | 61 | 304 | 1.7 | 4.3 | 0.00 | 0.00 | 0.00 | 59 | 1022.1 |
| 20260906113540 | 61 | 288 | 1.7 | 4.3 | 0.00 | 0.00 | 0.00 | 60 | 1022.1 |
| 20260906113055 | 61 | 287 | 0.9 | 3.5 | 0.00 | 0.00 | 0.00 | 59 | 1022.1 |
| 20260906112542 | 61 | 287 | 0.9 | 4.3 | 0.00 | 0.00 | 0.00 | 58 | 1022.1 |
| 20260906112043 | 62 | 287 | 1.7 | 5.2 | 0.00 | 0.00 | 0.00 | 58 | 1022.1 |
| 20260906111603 | 62 | 0 | 1.7 | 5.2 | 0.00 | 0.00 | 0.00 | 58 | 1022.0 |
| 20260906111041 | 62 | 284 | 1.7 | 3.5 | 0.00 | 0.00 | 0.00 | 58 | 1021.9 |
| 20260906110544 | 62 | 286 | 1.7 | 3.5 | 0.00 | 0.00 | 0.00 | 58 | 1022.0 |
| 20260906110049 | 62 | 313 | 0.9 | 3.5 | 0.00 | 0.00 | 0.00 | 58 | 1022.1 |
| 20260906105541 | 62 | 313 | 1.7 | 3.5 | 0.00 | 0.00 | 0.00 | 56 | 1022.0 |
| 20260906105043 | 62 | 323 | 0.9 | 3.5 | 0.00 | 0.00 | 0.00 | 56 | 1022.1 |
| 20260906104600 | 62 | 321 | 1.7 | 3.5 | 0.00 | 0.00 | 0.00 | 56 | 1022.2 |
| 20260906104040 | 62 | 288 | 1.7 | 3.5 | 0.00 | 0.00 | 0.00 | 55 | 1022.2 |
| 20260906103541 | 62 | 268 | 1.7 | 3.5 | 0.00 | 0.00 | 0.00 | 56 | 1022.1 |
| 20260906103057 | 62 | 261 | 0.9 | 2.6 | 0.00 | 0.00 | 0.00 | 55 | 1022.1 |
| 20260906102541 | 62 | 259 | 0.9 | 2.6 | 0.00 | 0.00 | 0.00 | 56 | 1022.2 |
| 20260906102040 | 62 | 259 | 0.9 | 2.6 | 0.00 | 0.00 | 0.00 | 56 | 1022.2 |
| 20260906101558 | 62 | 259 | 0.9 | 2.6 | 0.00 | 0.00 | 0.00 | 57 | 1022.2 |
| 20260906101042 | 62 | 245 | 0.0 | 1.7 | 0.00 | 0.00 | 0.00 | 57 | 1022.3 |
| 20260906100541 | 63 | 0 | 0.0 | 1.7 | 0.00 | 0.00 | 0.00 | 58 | 1022.3 |
| 20260906095541 | 63 | 0 | 0.0 | 0.9 | 0.00 | 0.00 | 0.00 | 59 | 1022.2 |
| 20260906095041 | 63 | 0 | 0.0 | 0.0 | 0.00 | 0.00 | 0.00 | 58 | 1022.2 |
| 20260906094559 | 63 | 0 | 0.0 | 0.0 | 0.00 | 0.00 | 0.00 | 57 | 1022.2 |
| 20260906094040 | 64 | 0 | 0.0 | 2.6 | 0.00 | 0.00 | 0.00 | 56 | 1022.1 |
| 20260906093541 | 64 | 0 | 0.0 | 2.6 | 0.00 | 0.00 | 0.00 | 55 | 1022.2 |
| 20260906093054 | 64 | 0 | 0.9 | 3.5 | 0.00 | 0.00 | 0.00 | 55 | 1022.1 |
| 20260906092540 | 64 | 0 | 0.9 | 3.5 | 0.00 | 0.00 | 0.00 | 54 | 1022.1 |
| 20260906092041 | 64 | 247 | 0.9 | 2.6 | 0.00 | 0.00 | 0.00 | 53 | 1021.9 |
| 20260906091601 | 64 | 0 | 0.0 | 1.7 | 0.00 | 0.00 | 0.00 | 52 | 1022.0 |
| 20260906091041 | 65 | 48 | 0.0 | 0.9 | 0.00 | 0.00 | 0.00 | 49 | 1021.8 |
| 20260906090541 | 66 | 0 | 0.0 | 0.9 | 0.00 | 0.00 | 0.00 | 48 | 1021.6 |
| 20260906090105 | 66 | 0 | 0.0 | 0.0 | 0.00 | 0.00 | 0.00 | 48 | 1021.5 |
| 20260906085542 | 67 | 0 | 0.0 | 0.0 | 0.00 | 0.00 | 0.00 | 48 | 1021.6 |
| 20260906085040 | 67 | 0 | 0.0 | 2.6 | 0.00 | 0.00 | 0.00 | 48 | 1021.6 |
| 20260906084617 | 68 | 0 | 0.0 | 2.6 | 0.00 | 0.00 | 0.00 | 47 | 1021.5 |
| 20260906084040 | 68 | 0 | 0.0 | 0.9 | 0.00 | 0.00 | 0.00 | 45 | 1021.4 |
| 20260906083540 | 68 | 0 | 0.0 | 4.3 | 0.00 | 0.00 | 0.00 | 44 | 1021.3 |
| 20260906083054 | 68 | 0 | 1.7 | 6.1 | 0.00 | 0.00 | 0.00 | 43 | 1021.3 |
| 20260906082540 | 68 | 0 | 1.7 | 7.8 | 0.00 | 0.00 | 0.00 | 43 | 1021.3 |
| 20260906082040 | 68 | 310 | 1.7 | 7.8 | 0.00 | 0.00 | 0.00 | 43 | 1021.3 |
| 20260906081601 | 68 | 299 | 4.3 | 8.7 | 0.00 | 0.00 | 0.00 | 43 | 1021.2 |
| 20260906081041 | 68 | 286 | 3.5 | 8.7 | 0.00 | 0.00 | 0.00 | 43 | 1021.3 |
| 20260906080541 | 68 | 300 | 4.3 | 8.7 | 0.00 | 0.00 | 0.00 | 42 | 1021.3 |
| 20260906075542 | 69 | 286 | 2.6 | 7.8 | 0.00 | 0.00 | 0.00 | 42 | 1021.5 |
| 20260906075043 | 69 | 314 | 3.5 | 7.8 | 0.00 | 0.00 | 0.00 | 42 | 1021.5 |
| 20260906074602 | 69 | 295 | 0.9 | 7.0 | 0.00 | 0.00 | 0.00 | 42 | 1021.5 |
| 20260906074040 | 70 | 294 | 2.6 | 7.0 | 0.00 | 0.00 | 0.00 | 41 | 1021.5 |
| 20260906073542 | 70 | 290 | 2.6 | 5.2 | 0.00 | 0.00 | 0.00 | 41 | 1021.5 |
| 20260906073052 | 70 | 311 | 1.7 | 3.5 | 0.00 | 0.00 | 0.00 | 41 | 1021.6 |
| 20260906072540 | 70 | 315 | 1.7 | 2.6 | 0.00 | 0.00 | 0.00 | 41 | 1021.7 |
| 20260906072042 | 70 | 315 | 0.9 | 3.5 | 0.00 | 0.00 | 0.00 | 41 | 1021.7 |
| 20260906071556 | 70 | 315 | 1.7 | 3.5 | 0.00 | 0.00 | 0.00 | 41 | 1021.6 |
| 20260906071041 | 71 | 315 | 0.9 | 3.5 | 0.00 | 0.00 | 0.00 | 40 | 1021.5 |
| 20260906070540 | 71 | 315 | 0.9 | 3.5 | 0.00 | 0.00 | 0.00 | 40 | 1021.5 |
| 20260906070055 | 71 | 315 | 0.9 | 2.6 | 0.00 | 0.00 | 0.00 | 40 | 1021.5 |
| 20260906065540 | 71 | 0 | 0.0 | 2.6 | 0.00 | 0.00 | 0.00 | 40 | 1021.5 |
| 20260906065039 | 72 | 0 | 0.0 | 2.6 | 0.00 | 0.00 | 0.00 | 40 | 1021.5 |
| 20260906064557 | 72 | 313 | 0.9 | 2.6 | 0.00 | 0.00 | 0.00 | 39 | 1021.5 |
| 20260906064039 | 73 | 0 | 0.0 | 2.6 | 0.00 | 0.00 | 0.00 | 38 | 1021.5 |
| 20260906063544 | 73 | 0 | 0.0 | 2.6 | 0.00 | 0.00 | 0.00 | 38 | 1021.4 |
| 20260906063101 | 73 | 0 | 0.9 | 2.6 | 0.00 | 0.00 | 0.00 | 38 | 1021.5 |
| 20260906062540 | 73 | 311 | 0.0 | 2.6 | 0.00 | 0.00 | 0.00 | 37 | 1021.6 |
| 20260906062039 | 73 | 0 | 0.0 | 3.5 | 0.00 | 0.00 | 0.00 | 37 | 1021.7 |
| 20260906061557 | 73 | 307 | 0.9 | 5.2 | 0.00 | 0.00 | 0.00 | 37 | 1021.5 |
| 20260906061040 | 72 | 304 | 1.7 | 5.2 | 0.00 | 0.00 | 0.00 | 37 | 1021.5 |
| 20260906060541 | 72 | 260 | 0.9 | 2.6 | 0.00 | 0.00 | 0.00 | 39 | 1021.5 |
| 20260906060058 | 72 | 260 | 0.9 | 1.7 | 0.00 | 0.00 | 0.00 | 39 | 1021.5 |
| 20260906055541 | 73 | 0 | 0.0 | 0.0 | 0.00 | 0.00 | 0.00 | 39 | 1021.7 |
| 20260906055040 | 73 | 0 | 0.0 | 3.5 | 0.00 | 0.00 | 0.00 | 39 | 1021.8 |
| 20260906054627 | 74 | 0 | 0.0 | 5.2 | 0.00 | 0.00 | 0.00 | 38 | 1021.9 |
| 20260906054044 | 74 | 0 | 1.7 | 6.1 | 0.00 | 0.00 | 0.00 | 37 | 1022.0 |
| 20260906053544 | 75 | 163 | 3.5 | 6.1 | 0.00 | 0.00 | 0.00 | 36 | 1022.1 |
| 20260906053059 | 75 | 169 | 2.6 | 4.3 | 0.00 | 0.00 | 0.00 | 37 | 1022.2 |
| 20260906052544 | 74 | 217 | 1.7 | 5.2 | 0.00 | 0.00 | 0.00 | 37 | 1022.2 |
| 20260906052045 | 74 | 177 | 1.7 | 5.2 | 0.00 | 0.00 | 0.00 | 37 | 1022.2 |
| 20260906051556 | 74 | 203 | 0.9 | 1.7 | 0.00 | 0.00 | 0.00 | 36 | 1022.1 |
| 20260906051043 | 74 | 202 | 0.0 | 1.7 | 0.00 | 0.00 | 0.00 | 36 | 1022.0 |
| 20260906050543 | 74 | 202 | 0.0 | 0.0 | 0.00 | 0.00 | 0.00 | 37 | 1021.9 |
| 20260906050105 | 75 | 0 | 0.0 | 1.7 | 0.00 | 0.00 | 0.00 | 36 | 1021.8 |
| 20260906045543 | 75 | 0 | 0.0 | 1.7 | 0.00 | 0.00 | 0.00 | 36 | 1021.7 |
| 20260906045041 | 75 | 0 | 0.0 | 1.7 | 0.00 | 0.00 | 0.00 | 36 | 1021.5 |
| 20260906044603 | 75 | 0 | 0.0 | 3.5 | 0.00 | 0.00 | 0.00 | 35 | 1021.5 |
| 20260906044044 | 75 | 0 | 0.0 | 3.5 | 0.00 | 0.00 | 0.00 | 35 | 1021.6 |
| 20260906043544 | 75 | 202 | 0.9 | 3.5 | 0.00 | 0.00 | 0.00 | 35 | 1021.6 |
| 20260906043055 | 75 | 0 | 0.0 | 0.0 | 0.00 | 0.00 | 0.00 | 36 | 1021.4 |
| 20260906042540 | 75 | 0 | 0.0 | 0.9 | 0.00 | 0.00 | 0.00 | 36 | 1021.2 |
| 20260906042044 | 75 | 0 | 0.0 | 1.7 | 0.00 | 0.00 | 0.00 | 35 | 1021.1 |
| 20260906041555 | 75 | 0 | 0.0 | 1.7 | 0.00 | 0.00 | 0.00 | 34 | 1021.2 |
| 20260906041042 | 76 | 292 | 0.0 | 3.5 | 0.00 | 0.00 | 0.00 | 34 | 1021.4 |
| 20260906040543 | 76 | 0 | 0.9 | 3.5 | 0.00 | 0.00 | 0.00 | 34 | 1021.4 |
| 20260906040109 | 75 | 251 | 0.9 | 3.5 | 0.00 | 0.00 | 0.00 | 35 | 1021.5 |
| 20260906035543 | 75 | 251 | 0.9 | 3.5 | 0.00 | 0.00 | 0.00 | 35 | 1021.5 |
| 20260906035044 | 75 | 43 | 0.0 | 1.7 | 0.00 | 0.00 | 0.00 | 34 | 1021.1 |
| 20260906034557 | 76 | 43 | 0.0 | 2.6 | 0.00 | 0.00 | 0.00 | 34 | 1021.0 |
| 20260906034043 | 76 | 43 | 0.0 | 4.3 | 0.00 | 0.00 | 0.00 | 33 | 1020.9 |
| 20260906033540 | 77 | 58 | 0.9 | 7.0 | 0.00 | 0.00 | 0.00 | 32 | 1020.7 |
| 20260906033101 | 78 | 49 | 2.6 | 7.0 | 0.00 | 0.00 | 0.00 | 31 | 1020.6 |
| 20260906032543 | 78 | 80 | 1.7 | 7.8 | 0.00 | 0.00 | 0.00 | 30 | 1020.5 |
| 20260906032043 | 78 | 86 | 0.9 | 9.6 | 0.00 | 0.00 | 0.00 | 30 | 1020.5 |
| 20260906031615 | 77 | 279 | 4.3 | 10.4 | 0.00 | 0.00 | 0.00 | 29 | 1020.4 |
| 20260906031044 | 77 | 286 | 6.1 | 10.4 | 0.00 | 0.00 | 0.00 | 30 | 1020.2 |
| 20260906030543 | 78 | 308 | 4.3 | 9.6 | 0.00 | 0.00 | 0.00 | 29 | 1020.2 |
| 20260906030059 | 78 | 286 | 5.2 | 9.6 | 0.00 | 0.00 | 0.00 | 30 | 1020.1 |
| 20260906025544 | 78 | 304 | 5.2 | 9.6 | 0.00 | 0.00 | 0.00 | 30 | 1020.0 |
| 20260906025044 | 78 | 264 | 5.2 | 8.7 | 0.00 | 0.00 | 0.00 | 29 | 1019.9 |
| 20260906024605 | 78 | 297 | 5.2 | 8.7 | 0.00 | 0.00 | 0.00 | 29 | 1019.9 |
| 20260906024043 | 79 | 300 | 5.2 | 8.7 | 0.00 | 0.00 | 0.00 | 29 | 1019.8 |
| 20260906023544 | 79 | 296 | 4.3 | 10.4 | 0.00 | 0.00 | 0.00 | 29 | 1019.9 |
| 20260906023101 | 80 | 298 | 5.2 | 12.2 | 0.00 | 0.00 | 0.00 | 28 | 1019.8 |
| 20260906022540 | 80 | 301 | 6.1 | 12.2 | 0.00 | 0.00 | 0.00 | 28 | 1019.7 |
| 20260906022041 | 80 | 256 | 7.0 | 13.9 | 0.00 | 0.00 | 0.00 | 28 | 1019.5 |
| 20260906021614 | 80 | 248 | 7.8 | 13.9 | 0.00 | 0.00 | 0.00 | 28 | 1019.5 |
| 20260906021040 | 81 | 292 | 4.3 | 12.2 | 0.00 | 0.00 | 0.00 | 28 | 1019.5 |
| 20260906020540 | 81 | 286 | 5.2 | 13.9 | 0.00 | 0.00 | 0.00 | 28 | 1019.6 |
| 20260906015539 | 81 | 272 | 6.1 | 11.3 | 0.00 | 0.00 | 0.00 | 28 | 1019.9 |
| 20260906015040 | 81 | 284 | 3.5 | 12.2 | 0.00 | 0.00 | 0.00 | 27 | 1019.9 |
| 20260906014556 | 81 | 213 | 4.3 | 12.2 | 0.00 | 0.00 | 0.00 | 27 | 1019.8 |
| 20260906014043 | 81 | 319 | 5.2 | 12.2 | 0.00 | 0.00 | 0.00 | 27 | 1019.6 |
| 20260906013542 | 81 | 292 | 5.2 | 12.2 | 0.00 | 0.00 | 0.00 | 27 | 1019.5 |
| 20260906013105 | 81 | 280 | 7.0 | 14.8 | 0.00 | 0.00 | 0.00 | 27 | 1019.5 |
| 20260906012539 | 81 | 278 | 7.8 | 14.8 | 0.00 | 0.00 | 0.00 | 27 | 1019.4 |
| 20260906012039 | 81 | 302 | 6.1 | 11.3 | 0.00 | 0.00 | 0.00 | 27 | 1019.4 |
| 20260906011604 | 81 | 277 | 6.1 | 11.3 | 0.00 | 0.00 | 0.00 | 28 | 1019.3 |
| 20260906011043 | 81 | 256 | 5.2 | 12.2 | 0.00 | 0.00 | 0.00 | 28 | 1019.5 |
| 20260906010540 | 81 | 286 | 7.0 | 12.2 | 0.00 | 0.00 | 0.00 | 28 | 1019.6 |
| 20260906010058 | 81 | 280 | 7.8 | 13.0 | 0.00 | 0.00 | 0.00 | 27 | 1019.5 |
| 20260906005541 | 82 | 302 | 5.2 | 13.0 | 0.00 | 0.00 | 0.00 | 27 | 1019.6 |
| 20260906005041 | 82 | 298 | 6.1 | 13.0 | 0.00 | 0.00 | 0.00 | 27 | 1019.6 |
| 20260906004606 | 82 | 305 | 7.0 | 13.0 | 0.00 | 0.00 | 0.00 | 26 | 1019.7 |
| 20260906004041 | 83 | 276 | 5.2 | 13.0 | 0.00 | 0.00 | 0.00 | 26 | 1019.7 |
| 20260906003541 | 83 | 305 | 5.2 | 13.0 | 0.00 | 0.00 | 0.00 | 26 | 1019.7 |
| 20260906003059 | 83 | 296 | 5.2 | 10.4 | 0.00 | 0.00 | 0.00 | 26 | 1019.8 |
| 20260906002539 | 83 | 261 | 3.5 | 14.8 | 0.00 | 0.00 | 0.00 | 26 | 1019.8 |
| 20260906002044 | 83 | 243 | 6.1 | 14.8 | 0.00 | 0.00 | 0.00 | 26 | 1019.8 |
| 20260906001557 | 83 | 320 | 5.2 | 14.8 | 0.00 | 0.00 | 0.00 | 26 | 1019.9 |
| 20260906001040 | 83 | 240 | 5.2 | 14.8 | 0.00 | 0.00 | 0.00 | 26 | 1019.9 |
| 20260906000542 | 83 | 311 | 6.1 | 14.8 | 0.00 | 0.00 | 0.00 | 26 | 1019.9 |
| 20260906000105 | 85 | 290 | 7.0 | 14.8 | 0.00 | 0.00 | 0.00 | 24 | 1019.9 |
| 20260905235540 | 86 | 311 | 4.3 | 12.2 | 0.00 | 0.00 | 0.00 | 22 | 1019.8 |
| 20260905235039 | 86 | 360 | 2.6 | 7.0 | 0.00 | 0.00 | 0.00 | 23 | 1019.6 |
| 20260905234605 | 86 | 329 | 0.9 | 6.1 | 0.00 | 0.00 | 0.00 | 22 | 1019.7 |
| 20260905234040 | 86 | 293 | 2.6 | 7.8 | 0.00 | 0.00 | 0.00 | 22 | 1019.7 |
| 20260905233544 | 86 | 296 | 3.5 | 7.8 | 0.00 | 0.00 | 0.00 | 22 | 1019.7 |
| 20260905233057 | 86 | 284 | 2.6 | 6.1 | 0.00 | 0.00 | 0.00 | 21 | 1019.6 |
| 20260905232539 | 86 | 296 | 0.9 | 6.1 | 0.00 | 0.00 | 0.00 | 21 | 1019.6 |
| 20260905232043 | 86 | 306 | 0.0 | 11.3 | 0.00 | 0.00 | 0.00 | 22 | 1019.6 |
| 20260905231557 | 86 | 0 | 0.0 | 11.3 | 0.00 | 0.00 | 0.00 | 22 | 1019.6 |
| 20260905231043 | 87 | 280 | 3.5 | 11.3 | 0.00 | 0.00 | 0.00 | 21 | 1019.6 |
| 20260905230547 | 87 | 235 | 0.0 | 2.6 | 0.00 | 0.00 | 0.00 | 22 | 1019.5 |
| 20260905230103 | 87 | 0 | 0.0 | 1.7 | 0.00 | 0.00 | 0.00 | 21 | 1019.3 |
| 20260905225543 | 87 | 0 | 0.0 | 2.6 | 0.00 | 0.00 | 0.00 | 21 | 1019.4 |
| 20260905225046 | 87 | 82 | 0.0 | 5.2 | 0.00 | 0.00 | 0.00 | 20 | 1019.3 |
| 20260905224557 | 88 | 0 | 0.0 | 5.2 | 0.00 | 0.00 | 0.00 | 20 | 1019.4 |
| 20260905224044 | 88 | 0 | 1.7 | 5.2 | 0.00 | 0.00 | 0.00 | 21 | 1019.3 |
| 20260905223543 | 88 | 0 | 0.9 | 4.3 | 0.00 | 0.00 | 0.00 | 20 | 1019.3 |
| 20260905223101 | 88 | 90 | 0.0 | 5.2 | 0.00 | 0.00 | 0.00 | 21 | 1019.3 |